Regional Weather Roundup
Issued by NWS Kansas City/Pleasant Hill, MO

Home | Current Version | Previous Version | Graphics & Text | Print | Product List | Glossary Off
Versions: 1 2 3 4 5 6 7 8 9 10 11 12 13 14 15 16 17 18 19 20 21 22 23 24 25 26 27 28 29 30 31 32 33 34 35 36 37 38 39 40 41 42 43 44 45 46 47 48 49 50

000
ASUS43 KEAX 260011
RWREAX

WEATHER ROUNDUP FOR EASTERN KANSAS AND NORTHWEST MISSOURI
NATIONAL WEATHER SERVICE KANSAS CITY/PLEASANT HILL MO
700 PM CDT FRI JUL 25 2014

KSZ040-057-103>105-MOZ028-029-037-043-260100-
...KANSAS CITY METROPOLITAN AREA...

CITY           SKY/WX    TMP DP  RH WIND       PRES   REMARKS
K.C. INTL      PTSUNNY   92  72  51 S16       29.76F HX  99
6HR MIN TEMP:  90; 6HR MAX TEMP:  96;

K.C. DOWNTOWN  MOSUNNY   94  72  48 S18G24    29.75F HX 102
6HR MIN TEMP:  93; 6HR MAX TEMP:  98; 6HR PCP: TRACE;

LEES SUMMIT    MOSUNNY   90  73  57 S10G24    29.80S HX  98
6HR MIN TEMP:  88; 6HR MAX TEMP:  94;

OLATHE - IXD   MOSUNNY   91  72  53 S15       29.81S HX  98
6HR MIN TEMP:  91; 6HR MAX TEMP:  98;

OLATHE - OJC   MOSUNNY   91  72  53 S17G23    29.80S HX  98
6HR MIN TEMP:  91; 6HR MAX TEMP:  96;

LAWRENCE       PTSUNNY   96  71  44 S13       29.77F HX 103

$$

MOZ001>008-011>017-020>025-030>033-038>040-044>046-053-054-260100-
...NORTHERN AND CENTRAL MISSOURI...

CITY           SKY/WX    TMP DP  RH WIND       PRES   REMARKS
ST. JOSEPH     SUNNY     93  75  55 S10       29.73S HX 104
6HR MIN TEMP:  89; 6HR MAX TEMP:  95;

MOSBY          CLEAR     91  72  52 S12       29.75F HX  98
WARRENSBURG    MOSUNNY   86  72  62 S9        29.80F HX  92
WHITEMAN AFB   SUNNY     90  69  49 SW20      29.80F HX  94
6HR MIN TEMP:  88; 6HR MAX TEMP:  93;

CLINTON        SUNNY     91  72  52 S12       29.83S HX  98
SEDALIA        SUNNY     92  69  47 S16       29.82F HX  97
6HR MIN TEMP:  87; 6HR MAX TEMP:  95;

WARSAW         NOT AVBL
MARSHALL       MOSUNNY   91  75  59 SW12G17   29.79S HX 102
CHILLICOTHE      N/A     89  76  65 S8        29.77S HX 100
6HR MIN TEMP:  80; 6HR MAX TEMP:  91;

MOBERLY        MOSUNNY   88  70  55 S6        29.80F HX  92
KIRKSVILLE     MOSUNNY   78  69  73 E7        29.82F
6HR MIN TEMP:  65; 6HR MAX TEMP:  79;


$$

MOZ041-047>049-056>058-063>065-088>090-097-260100-
...EASTERN AND SOUTHERN MISSOURI...

CITY           SKY/WX    TMP DP  RH WIND       PRES   REMARKS
ST. LOUIS INTL PTSUNNY   80  63  55 S10G21    29.87F
6HR MIN TEMP:  69; 6HR MAX TEMP:  81; 6HR PCP:  0.02;

SPIRIT OF STL  MOSUNNY   80  62  54 S12       29.85F
COLUMBIA       MOSUNNY   87  72  60 S13       29.82F HX  93
JEFFERSON CITY MOSUNNY   88  70  55 S14       29.82F HX  93
MEXICO         SUNNY     86  73  66 S13       29.81F HX  93
HANNIBAL       SUNNY     79  64  61 SE5       29.84F
ROLLA          MOSUNNY   84  67  56 S13       29.88S
LEBANON        SUNNY     86  70  58 S12G21    29.91S HX  90
OSAGE BEACH    MOSUNNY   88  70  55 S10G20    29.85F HX  92
SPRINGFIELD    SUNNY     90  68  48 S13       29.90F HX  94
BRANSON        PTSUNNY   90  72  55 S17       29.96F HX  96
NEVADA         SUNNY     88  72  58 S14G21    29.86S HX  94
JOPLIN         SUNNY     89  70  53 S17       29.89F HX  94
WEST PLAINS    SUNNY     82  67  60 S10       29.96F

$$

IAZ060-094-KSZ022-034>040-054-083-096-NEZ052-066-093-260100-
...KANSAS...SOUTHEAST NEBRASKA AND IOWA...

CITY           SKY/WX    TMP DP  RH WIND       PRES   REMARKS
TOPEKA         PTSUNNY   97  72  44 S12G23    29.75F HX 105
6HR MIN TEMP:  97; 6HR MAX TEMP: 102;

MANHATTAN      MOSUNNY  103  66  30 SW10      29.73S HX 107
EMPORIA        MOSUNNY   92  71  50 S16       29.80S HX  98
CHANUTE        SUNNY     90  73  57 S17G24    29.85S HX  98
WICHITA        MOSUNNY   99  59  26 S18G25    29.77F HX  99
OMAHA          PTSUNNY   91  77  63 E8        29.72S HX 104
LINCOLN        SUNNY     96  71  44 NW7       29.74F HX 103
FALLS CITY     SUNNY     99  72  41 SW8       29.71S HX 108
LAMONI         SUNNY     80  72  76 VRB5      29.77F
DES MOINES     MOSUNNY   82  70  66 SE7       29.78F

$$




USA.gov is the U.S. government's official web portal to all federal, state and local government web resources and services.